CW7222 Mataro ES current weather conditions

sailwx.info

Wind from 333

Air temperature 20.6° C
Dewpoint 16.4° C

Last reported at 2019-Sep-16 22:03 UTC.
Time now 2019-Sep-16 22:24 UTC

Location: N 41°33' E 002°28'.
View on Google Maps.

See reports from other nearby stations

  
Tides and Currents Weather Stations Pressure Air Temp Water Temp Dewpoint Dewpoint Depression Visibility Wind Speed Wind Dir Waves Ship Positions
date/time (UTC)wind fromknots sea level pressurealtimeterstation pressurevisibilityair tempwater tempwave heightnotes
2019-Sep-16 22:03 333 20.6
2019-Sep-16 21:53 335 21.1
2019-Sep-16 21:43 336 21.1
2019-Sep-16 21:33 338 21.7
2019-Sep-16 21:23 338 21.7
2019-Sep-16 21:13 338 22.2
2019-Sep-16 21:03 338 22.2
2019-Sep-16 20:53 338 22.2
2019-Sep-16 20:43 338 22.2
2019-Sep-16 20:33 339 22.2
2019-Sep-16 20:23 337 22.2
2019-Sep-16 20:13 340 22.8
2019-Sep-16 20:03 339 22.8
2019-Sep-16 19:53 340 22.8
2019-Sep-16 19:43 338 22.8
2019-Sep-16 19:33 339 0 gusting 2 22.8
2019-Sep-16 19:23 337 22.8
2019-Sep-16 19:13 337 22.8
2019-Sep-16 19:03 338 22.8
2019-Sep-16 18:53 338 22.8
2019-Sep-16 18:43 339 0 gusting 2 22.8
2019-Sep-16 18:33 339 0 gusting 3 22.8
2019-Sep-16 18:23 334 1 gusting 3 22.8
2019-Sep-16 18:13 317 0 gusting 2 23.3
2019-Sep-16 18:03 311 23.9
2019-Sep-16 17:53 309 23.9
2019-Sep-16 17:43 312 24.4
2019-Sep-16 17:33 309 0 gusting 1 25.0
2019-Sep-16 17:23 306 25.6
2019-Sep-16 17:13 178 25.6
2019-Sep-16 17:03 178 25.0
2019-Sep-16 16:53 178 25.0
2019-Sep-16 16:43 178 25.0
2019-Sep-16 16:33 178 24.4
2019-Sep-16 16:23 163 0 gusting 1 24.4
2019-Sep-16 16:13 170 0 gusting 2 24.4
2019-Sep-16 16:03 169 1 gusting 3 24.4
2019-Sep-16 15:53 170 1 gusting 2 24.4
2019-Sep-16 15:43 169 2 gusting 3 24.4
2019-Sep-16 15:33 171 2 gusting 4 24.4
2019-Sep-16 15:23 169 0 gusting 3 24.4
2019-Sep-16 15:13 173 1 gusting 4 24.4
2019-Sep-16 15:03 141 1 gusting 3 24.4
2019-Sep-16 14:53 157 2 gusting 4 23.9
2019-Sep-16 14:43 149 1 gusting 4 24.4
2019-Sep-16 14:33 159 2 gusting 4 24.4
2019-Sep-16 14:23 135 0 gusting 5 24.4
2019-Sep-16 14:13 142 2 gusting 5 24.4
2019-Sep-16 14:03 167 3 gusting 6 24.4
2019-Sep-16 13:53 164 3 gusting 5 25.0
2019-Sep-16 13:43 161 1 gusting 6 24.4
2019-Sep-16 13:33 148 3 gusting 6 25.0
2019-Sep-16 13:23 126 2 gusting 5 25.6
2019-Sep-16 13:13 090 0 gusting 5 24.4
2019-Sep-16 13:03 165 1 gusting 4 23.9
2019-Sep-16 12:53 156 2 gusting 6 23.9
2019-Sep-16 12:43 165 3 gusting 6 23.9
2019-Sep-16 12:33 167 1 gusting 6 23.3
2019-Sep-16 12:23 183 2 gusting 6 23.9
2019-Sep-16 12:13 180 3 gusting 6 23.9
2019-Sep-16 12:03 159 1 gusting 6 23.9
2019-Sep-16 11:53 146 3 gusting 6 24.4
2019-Sep-16 11:43 163 0 gusting 6 24.4
2019-Sep-16 11:33 144 0 gusting 6 24.4
2019-Sep-16 11:23 134 1 gusting 6 24.4
2019-Sep-16 11:13 189 1 gusting 6 23.9
2019-Sep-16 11:03 181 0 gusting 6 24.4
2019-Sep-16 10:53 136 0 gusting 4 23.9
2019-Sep-16 10:43 102 23.9
2019-Sep-16 10:33 089 0 gusting 4 23.9
2019-Sep-16 10:23 107 0 gusting 5 23.3
2019-Sep-16 10:13 137 2 gusting 6 23.3
2019-Sep-16 10:03 158 0 gusting 5 23.9
2019-Sep-16 09:53 166 1 gusting 4 23.9
2019-Sep-16 09:43 160 2 gusting 6 24.4
2019-Sep-16 09:33 183 0 gusting 4 24.4
2019-Sep-16 09:23 095 1 gusting 4 24.4
2019-Sep-16 09:13 167 1 gusting 6 24.4
2019-Sep-16 09:03 168 2 gusting 6 24.4
2019-Sep-16 08:53 190 4 gusting 7 24.4
2019-Sep-16 08:43 198 3 gusting 5 25.0
2019-Sep-16 08:33 178 1 gusting 3 25.6
2019-Sep-16 08:23 218 1 gusting 3 25.6
2019-Sep-16 08:13 360 0 gusting 2 26.1
2019-Sep-16 08:03 005 26.1
2019-Sep-16 07:53 360 25.0
2019-Sep-16 07:43 360 24.4
2019-Sep-16 07:33 005 24.4
2019-Sep-16 07:23 005 25.0
2019-Sep-16 07:13 005 24.4
2019-Sep-16 07:03 360 23.3
2019-Sep-16 06:53 005 22.8
2019-Sep-16 06:43 360 22.2
2019-Sep-16 06:33 005 21.7
2019-Sep-16 06:23 005 21.1
2019-Sep-16 06:13 360 21.1
2019-Sep-16 06:03 005 21.7
2019-Sep-16 05:53 360 21.7
2019-Sep-16 05:43 005 22.2
2019-Sep-16 05:33 360 22.2
2019-Sep-16 05:23 005 22.8
2019-Sep-16 05:13 005 22.8
2019-Sep-16 05:03 360 22.8
2019-Sep-16 04:53 360 22.8
2019-Sep-16 04:43 355 22.8
2019-Sep-16 04:33 355 21.7
2019-Sep-16 04:23 355 21.1
2019-Sep-16 04:13 355 21.1
2019-Sep-16 04:03 355 21.1
2019-Sep-16 03:53 360 0 gusting 3 21.1
2019-Sep-16 03:43 036 21.7
2019-Sep-16 03:33 036 21.7
2019-Sep-16 03:23 036 21.7
2019-Sep-16 03:13 036 21.7
2019-Sep-16 03:03 036 22.2
2019-Sep-16 02:53 036 22.2
2019-Sep-16 02:43 036 22.8
2019-Sep-16 02:33 036 22.8
2019-Sep-16 02:23 036 22.2
2019-Sep-16 02:13 018 21.7
2019-Sep-16 02:03 017 21.1
2019-Sep-16 01:53 017 20.6
2019-Sep-16 01:43 017 20.0
2019-Sep-16 01:33 017 20.6
2019-Sep-16 01:23 017 20.6
2019-Sep-16 01:13 017 21.1
2019-Sep-16 01:03 017 21.7
2019-Sep-16 00:53 017 21.7
2019-Sep-16 00:43 017 21.7
2019-Sep-16 00:33 017 21.7
2019-Sep-16 00:23 017 21.1
2019-Sep-16 00:13 017 20.6
2019-Sep-16 00:03 017 20.6
2019-Sep-15 23:53 017 20.6
2019-Sep-15 23:43 017 20.6
2019-Sep-15 23:33 017 21.1
2019-Sep-15 23:23 017 21.1
2019-Sep-15 23:13 017 21.1
2019-Sep-15 23:03 030 21.7
2019-Sep-15 22:53 030 21.7
2019-Sep-15 22:43 032 22.8
2019-Sep-15 22:33 033 22.8
2019-Sep-15 22:23 033 23.3
2019-Sep-15 22:13 033 23.3
2019-Sep-15 22:03 034 23.3
2019-Sep-15 21:53 034 22.8
2019-Sep-15 21:43 034 22.8
2019-Sep-15 21:33 033 22.2
2019-Sep-15 21:23 034 22.2
2019-Sep-15 21:13 034 22.2
2019-Sep-15 21:03 033 22.2
2019-Sep-15 20:53 033 22.2
2019-Sep-15 20:43 034 22.2
2019-Sep-15 20:33 034 22.2
2019-Sep-15 20:23 034 22.2
2019-Sep-15 20:13 071 22.2
2019-Sep-15 20:03 075 22.2
2019-Sep-15 19:53 075 22.2
2019-Sep-15 19:43 075 22.2
2019-Sep-15 19:33 075 22.2
2019-Sep-15 19:23 075 22.8
2019-Sep-15 19:13 075 23.3
2019-Sep-15 19:03 075 23.3
2019-Sep-15 18:53 075 23.3
2019-Sep-15 18:43 075 22.8
2019-Sep-15 18:33 075 22.8
2019-Sep-15 18:23 076 23.3
2019-Sep-15 18:13 075 23.3
2019-Sep-15 18:03 076 23.3
2019-Sep-15 17:53 069 23.3
2019-Sep-15 17:43 046 23.3
2019-Sep-15 17:33 092 0 gusting 6 23.9
2019-Sep-15 17:23 091 0 gusting 6 24.4
2019-Sep-15 17:13 143 25.0
2019-Sep-15 17:03 069 0 gusting 6 25.6
2019-Sep-15 16:53 098 3 gusting 11 25.6
2019-Sep-15 16:43 099 3 gusting 11 25.6
2019-Sep-15 16:33 109 2 gusting 8 25.6
2019-Sep-15 16:23 080 2 gusting 8 26.1
2019-Sep-15 16:13 204 1 gusting 7 25.6
2019-Sep-15 16:03 084 3 gusting 7 25.6
2019-Sep-15 15:53 091 5 gusting 10 25.0
2019-Sep-15 15:43 061 4 gusting 7 25.6
2019-Sep-15 15:33 084 1 gusting 7 26.1
2019-Sep-15 15:23 093 2 gusting 11 26.1
2019-Sep-15 15:13 123 0 gusting 8 26.7
2019-Sep-15 15:03 111 6 gusting 10 26.7
2019-Sep-15 14:53 128 3 gusting 13 26.7
2019-Sep-15 14:43 094 3 gusting 12 26.7
2019-Sep-15 14:33 072 0 gusting 10 26.7
2019-Sep-15 14:23 135 4 gusting 13 26.7
2019-Sep-15 14:13 183 5 gusting 12 27.2
2019-Sep-15 14:03 121 2 gusting 8 27.2
2019-Sep-15 13:53 115 2 gusting 9 27.2
2019-Sep-15 13:43 074 4 gusting 11 26.7
2019-Sep-15 13:33 129 3 gusting 9 27.2
2019-Sep-15 13:23 064 4 gusting 14 27.2
2019-Sep-15 13:13 091 1 gusting 7 26.7
2019-Sep-15 13:03 105 4 gusting 8 26.7
2019-Sep-15 12:53 094 0 gusting 13 26.7
2019-Sep-15 12:43 069 2 gusting 11 26.7
2019-Sep-15 12:33 087 4 gusting 8 27.2
2019-Sep-15 12:23 160 2 gusting 9 27.2
2019-Sep-15 12:13 103 2 gusting 8 27.8
2019-Sep-15 12:03 067 3 gusting 12 27.8
2019-Sep-15 11:53 045 0 gusting 9 26.7
2019-Sep-15 11:43 032 1 gusting 8 26.7
2019-Sep-15 11:33 114 1 gusting 12 26.7
2019-Sep-15 11:23 115 2 gusting 7 27.2
2019-Sep-15 11:13 123 2 gusting 7 28.3
2019-Sep-15 11:03 118 3 gusting 9 28.9
2019-Sep-15 10:53 152 1 gusting 7 28.9
2019-Sep-15 10:43 110 1 gusting 6 28.9
2019-Sep-15 10:33 119 1 gusting 5 28.9
2019-Sep-15 10:23 094 0 gusting 8 28.9
2019-Sep-15 10:13 098 1 gusting 8 28.3
2019-Sep-15 10:03 069 0 gusting 6 27.8
2019-Sep-15 09:53 074 2 gusting 8 27.8
2019-Sep-15 09:43 082 1 gusting 7 27.2
2019-Sep-15 09:33 089 2 gusting 7 27.2
2019-Sep-15 09:23 136 1 gusting 7 27.2
2019-Sep-15 09:13 103 2 gusting 8 27.2
2019-Sep-15 09:03 118 1 gusting 15 27.2
2019-Sep-15 08:53 082 3 gusting 12 26.7
2019-Sep-15 08:43 068 4 gusting 12 26.7
2019-Sep-15 08:33 072 2 gusting 9 26.7
2019-Sep-15 08:23 140 1 gusting 7 26.7
2019-Sep-15 08:13 078 1 gusting 6 26.7
2019-Sep-15 08:03 082 26.1
2019-Sep-15 07:53 014 26.1
2019-Sep-15 07:43 017 25.6
2019-Sep-15 07:33 019 24.4
2019-Sep-15 07:23 018 23.9
2019-Sep-15 07:13 044 23.3
2019-Sep-15 07:03 042 22.2
2019-Sep-15 06:53 346 21.7
2019-Sep-15 06:43 348 21.1
2019-Sep-15 06:33 034 20.6
2019-Sep-15 06:23 033 20.6
2019-Sep-15 06:13 034 20.6
2019-Sep-15 06:03 038 20.0
2019-Sep-15 05:53 039 19.4
2019-Sep-15 05:43 039 19.4
2019-Sep-15 05:33 039 20.6
2019-Sep-15 05:23 040 20.6
2019-Sep-15 05:13 046 20.6
2019-Sep-15 05:03 049 21.7
2019-Sep-15 04:53 047 21.1
2019-Sep-15 04:43 336 20.6
2019-Sep-15 04:33 338 20.6
2019-Sep-15 04:23 342 21.1
2019-Sep-15 04:13 344 21.7
2019-Sep-15 04:03 344 21.7
2019-Sep-15 03:53 339 21.1
2019-Sep-15 03:43 336 20.6
2019-Sep-15 03:33 338 20.6
2019-Sep-15 03:23 342 21.1
2019-Sep-15 03:13 342 21.7
2019-Sep-15 03:03 342 22.2
2019-Sep-15 02:53 346 1 gusting 3 22.2
2019-Sep-15 02:43 350 22.2
2019-Sep-15 02:33 360 22.8
2019-Sep-15 02:23 360 23.3
2019-Sep-15 02:13 360 23.3
2019-Sep-15 02:03 022 0 gusting 5 23.3
2019-Sep-15 01:53 005 0 gusting 7 23.3
2019-Sep-15 01:43 355 1 gusting 6 23.3
2019-Sep-15 01:33 052 23.3
2019-Sep-15 01:23 036 1 gusting 5 23.3
2019-Sep-15 01:13 013 0 gusting 5 23.3
2019-Sep-15 01:03 355 1 gusting 6 22.8
2019-Sep-15 00:53 049 0 gusting 4 22.8
2019-Sep-15 00:43 030 22.2
2019-Sep-15 00:33 065 21.7
2019-Sep-15 00:23 065 22.2
2019-Sep-15 00:13 066 22.2
2019-Sep-15 00:03 019 22.2
2019-Sep-14 23:53 360 22.2
2019-Sep-14 23:43 005 22.2
2019-Sep-14 23:33 360 21.7
2019-Sep-14 23:23 005 21.7
2019-Sep-14 23:13 360 21.7
2019-Sep-14 23:03 009 21.7
2019-Sep-14 22:53 009 21.1
2019-Sep-14 22:43 009 21.1
2019-Sep-14 22:33 009 20.6
2019-Sep-14 22:23 009 20.6
2019-Sep-14 22:13 009 21.1
2019-Sep-14 22:03 009 21.1